Index of /20260425/WXO-DD/model_caps/3km/00/043
Name Last modified Size Description
Parent Directory -
20260425T00Z_MSC_CAPS_AbsoluteVorticity_IsbL-0250_RLatLon0.03_PT043H.grib2 2026-04-25 06:30 1.0M
20260425T00Z_MSC_CAPS_AbsoluteVorticity_IsbL-0500_RLatLon0.03_PT043H.grib2 2026-04-25 06:30 1.5M
20260425T00Z_MSC_CAPS_AbsoluteVorticity_IsbL-0700_RLatLon0.03_PT043H.grib2 2026-04-25 06:30 1.4M
20260425T00Z_MSC_CAPS_AbsoluteVorticity_IsbL-0850_RLatLon0.03_PT043H.grib2 2026-04-25 06:30 1.2M
20260425T00Z_MSC_CAPS_AbsoluteVorticity_IsbL-1000_RLatLon0.03_PT043H.grib2 2026-04-25 06:30 1.4M
20260425T00Z_MSC_CAPS_AirDensity_AGL-120m_RLatLon0.03_PT043H.grib2 2026-04-25 06:30 1.4M
20260425T00Z_MSC_CAPS_AirDensity_AGL-40m_RLatLon0.03_PT043H.grib2 2026-04-25 06:30 1.4M
20260425T00Z_MSC_CAPS_AirDensity_AGL-80m_RLatLon0.03_PT043H.grib2 2026-04-25 06:30 1.4M
20260425T00Z_MSC_CAPS_AirTemp_AGL-120m_RLatLon0.03_PT043H.grib2 2026-04-25 06:30 1.8M
20260425T00Z_MSC_CAPS_AirTemp_AGL-2m_RLatLon0.03_PT043H.grib2 2026-04-25 06:30 2.1M
20260425T00Z_MSC_CAPS_AirTemp_AGL-40m_RLatLon0.03_PT043H.grib2 2026-04-25 06:30 1.9M
20260425T00Z_MSC_CAPS_AirTemp_AGL-80m_RLatLon0.03_PT043H.grib2 2026-04-25 06:30 1.8M
20260425T00Z_MSC_CAPS_AirTemp_IsbL-0050_RLatLon0.03_PT043H.grib2 2026-04-25 06:30 692K
20260425T00Z_MSC_CAPS_AirTemp_IsbL-0100_RLatLon0.03_PT043H.grib2 2026-04-25 06:30 781K
20260425T00Z_MSC_CAPS_AirTemp_IsbL-0150_RLatLon0.03_PT043H.grib2 2026-04-25 06:30 973K
20260425T00Z_MSC_CAPS_AirTemp_IsbL-0175_RLatLon0.03_PT043H.grib2 2026-04-25 06:30 758K
20260425T00Z_MSC_CAPS_AirTemp_IsbL-0200_RLatLon0.03_PT043H.grib2 2026-04-25 06:30 776K
20260425T00Z_MSC_CAPS_AirTemp_IsbL-0225_RLatLon0.03_PT043H.grib2 2026-04-25 06:30 777K
20260425T00Z_MSC_CAPS_AirTemp_IsbL-0250_RLatLon0.03_PT043H.grib2 2026-04-25 06:30 1.0M
20260425T00Z_MSC_CAPS_AirTemp_IsbL-0275_RLatLon0.03_PT043H.grib2 2026-04-25 06:30 1.0M
20260425T00Z_MSC_CAPS_AirTemp_IsbL-0300_RLatLon0.03_PT043H.grib2 2026-04-25 06:30 1.0M
20260425T00Z_MSC_CAPS_AirTemp_IsbL-0350_RLatLon0.03_PT043H.grib2 2026-04-25 06:30 740K
20260425T00Z_MSC_CAPS_AirTemp_IsbL-0400_RLatLon0.03_PT043H.grib2 2026-04-25 06:30 746K
20260425T00Z_MSC_CAPS_AirTemp_IsbL-0450_RLatLon0.03_PT043H.grib2 2026-04-25 06:30 765K
20260425T00Z_MSC_CAPS_AirTemp_IsbL-0500_RLatLon0.03_PT043H.grib2 2026-04-25 06:30 787K
20260425T00Z_MSC_CAPS_AirTemp_IsbL-0550_RLatLon0.03_PT043H.grib2 2026-04-25 06:30 799K
20260425T00Z_MSC_CAPS_AirTemp_IsbL-0600_RLatLon0.03_PT043H.grib2 2026-04-25 06:30 814K
20260425T00Z_MSC_CAPS_AirTemp_IsbL-0650_RLatLon0.03_PT043H.grib2 2026-04-25 06:30 839K
20260425T00Z_MSC_CAPS_AirTemp_IsbL-0700_RLatLon0.03_PT043H.grib2 2026-04-25 06:30 1.0M
20260425T00Z_MSC_CAPS_AirTemp_IsbL-0750_RLatLon0.03_PT043H.grib2 2026-04-25 06:30 1.0M
20260425T00Z_MSC_CAPS_AirTemp_IsbL-0800_RLatLon0.03_PT043H.grib2 2026-04-25 06:30 1.1M
20260425T00Z_MSC_CAPS_AirTemp_IsbL-0850_RLatLon0.03_PT043H.grib2 2026-04-25 06:30 1.1M
20260425T00Z_MSC_CAPS_AirTemp_IsbL-0875_RLatLon0.03_PT043H.grib2 2026-04-25 06:30 1.1M
20260425T00Z_MSC_CAPS_AirTemp_IsbL-0900_RLatLon0.03_PT043H.grib2 2026-04-25 06:30 1.1M
20260425T00Z_MSC_CAPS_AirTemp_IsbL-0925_RLatLon0.03_PT043H.grib2 2026-04-25 06:30 1.1M
20260425T00Z_MSC_CAPS_AirTemp_IsbL-0950_RLatLon0.03_PT043H.grib2 2026-04-25 06:30 1.2M
20260425T00Z_MSC_CAPS_AirTemp_IsbL-0970_RLatLon0.03_PT043H.grib2 2026-04-25 06:30 1.2M
20260425T00Z_MSC_CAPS_AirTemp_IsbL-0985_RLatLon0.03_PT043H.grib2 2026-04-25 06:30 1.2M
20260425T00Z_MSC_CAPS_AirTemp_IsbL-1000_RLatLon0.03_PT043H.grib2 2026-04-25 06:30 1.1M
20260425T00Z_MSC_CAPS_AirTemp_IsbL-1015_RLatLon0.03_PT043H.grib2 2026-04-25 06:30 1.0M
20260425T00Z_MSC_CAPS_Albedo_Sfc_RLatLon0.03_PT043H.grib2 2026-04-25 06:30 2.7M
20260425T00Z_MSC_CAPS_CAPE_Sfc_RLatLon0.03_PT043H.grib2 2026-04-25 06:30 94K
20260425T00Z_MSC_CAPS_CloudWater_EAtm_RLatLon0.03_PT043H.grib2 2026-04-25 06:30 1.4M
20260425T00Z_MSC_CAPS_ConvectivePrecip-Accum_Sfc_RLatLon0.03_PT043H.grib2 2026-04-25 06:30 4.5M
20260425T00Z_MSC_CAPS_DewPointDepression_AGL-120m_RLatLon0.03_PT043H.grib2 2026-04-25 06:30 2.1M
20260425T00Z_MSC_CAPS_DewPointDepression_AGL-2m_RLatLon0.03_PT043H.grib2 2026-04-25 06:30 2.2M
20260425T00Z_MSC_CAPS_DewPointDepression_AGL-40m_RLatLon0.03_PT043H.grib2 2026-04-25 06:30 2.2M
20260425T00Z_MSC_CAPS_DewPointDepression_AGL-80m_RLatLon0.03_PT043H.grib2 2026-04-25 06:30 2.2M
20260425T00Z_MSC_CAPS_DewPointDepression_IsbL-0050_RLatLon0.03_PT043H.grib2 2026-04-25 06:30 2.5K
20260425T00Z_MSC_CAPS_DewPointDepression_IsbL-0100_RLatLon0.03_PT043H.grib2 2026-04-25 06:30 124K
20260425T00Z_MSC_CAPS_DewPointDepression_IsbL-0150_RLatLon0.03_PT043H.grib2 2026-04-25 06:30 129K
20260425T00Z_MSC_CAPS_DewPointDepression_IsbL-0175_RLatLon0.03_PT043H.grib2 2026-04-25 06:30 278K
20260425T00Z_MSC_CAPS_DewPointDepression_IsbL-0200_RLatLon0.03_PT043H.grib2 2026-04-25 06:30 430K
20260425T00Z_MSC_CAPS_DewPointDepression_IsbL-0225_RLatLon0.03_PT043H.grib2 2026-04-25 06:30 651K
20260425T00Z_MSC_CAPS_DewPointDepression_IsbL-0250_RLatLon0.03_PT043H.grib2 2026-04-25 06:30 871K
20260425T00Z_MSC_CAPS_DewPointDepression_IsbL-0275_RLatLon0.03_PT043H.grib2 2026-04-25 06:30 1.0M
20260425T00Z_MSC_CAPS_DewPointDepression_IsbL-0300_RLatLon0.03_PT043H.grib2 2026-04-25 06:30 1.1M
20260425T00Z_MSC_CAPS_DewPointDepression_IsbL-0350_RLatLon0.03_PT043H.grib2 2026-04-25 06:30 1.1M
20260425T00Z_MSC_CAPS_DewPointDepression_IsbL-0400_RLatLon0.03_PT043H.grib2 2026-04-25 06:30 1.1M
20260425T00Z_MSC_CAPS_DewPointDepression_IsbL-0450_RLatLon0.03_PT043H.grib2 2026-04-25 06:30 1.2M
20260425T00Z_MSC_CAPS_DewPointDepression_IsbL-0500_RLatLon0.03_PT043H.grib2 2026-04-25 06:30 1.2M
20260425T00Z_MSC_CAPS_DewPointDepression_IsbL-0550_RLatLon0.03_PT043H.grib2 2026-04-25 06:30 1.3M
20260425T00Z_MSC_CAPS_DewPointDepression_IsbL-0600_RLatLon0.03_PT043H.grib2 2026-04-25 06:30 1.3M
20260425T00Z_MSC_CAPS_DewPointDepression_IsbL-0650_RLatLon0.03_PT043H.grib2 2026-04-25 06:30 1.3M
20260425T00Z_MSC_CAPS_DewPointDepression_IsbL-0700_RLatLon0.03_PT043H.grib2 2026-04-25 06:30 1.3M
20260425T00Z_MSC_CAPS_DewPointDepression_IsbL-0750_RLatLon0.03_PT043H.grib2 2026-04-25 06:30 1.4M
20260425T00Z_MSC_CAPS_DewPointDepression_IsbL-0800_RLatLon0.03_PT043H.grib2 2026-04-25 06:30 1.4M
20260425T00Z_MSC_CAPS_DewPointDepression_IsbL-0850_RLatLon0.03_PT043H.grib2 2026-04-25 06:30 1.4M
20260425T00Z_MSC_CAPS_DewPointDepression_IsbL-0875_RLatLon0.03_PT043H.grib2 2026-04-25 06:30 1.4M
20260425T00Z_MSC_CAPS_DewPointDepression_IsbL-0900_RLatLon0.03_PT043H.grib2 2026-04-25 06:30 1.4M
20260425T00Z_MSC_CAPS_DewPointDepression_IsbL-0925_RLatLon0.03_PT043H.grib2 2026-04-25 06:30 1.3M
20260425T00Z_MSC_CAPS_DewPointDepression_IsbL-0950_RLatLon0.03_PT043H.grib2 2026-04-25 06:30 1.3M
20260425T00Z_MSC_CAPS_DewPointDepression_IsbL-0970_RLatLon0.03_PT043H.grib2 2026-04-25 06:30 1.3M
20260425T00Z_MSC_CAPS_DewPointDepression_IsbL-0985_RLatLon0.03_PT043H.grib2 2026-04-25 06:30 1.3M
20260425T00Z_MSC_CAPS_DewPointDepression_IsbL-1000_RLatLon0.03_PT043H.grib2 2026-04-25 06:30 1.3M
20260425T00Z_MSC_CAPS_DewPointDepression_IsbL-1015_RLatLon0.03_PT043H.grib2 2026-04-25 06:30 1.3M
20260425T00Z_MSC_CAPS_DewPoint_AGL-120m_RLatLon0.03_PT043H.grib2 2026-04-25 06:30 3.7M
20260425T00Z_MSC_CAPS_DewPoint_AGL-2m_RLatLon0.03_PT043H.grib2 2026-04-25 06:30 2.1M
20260425T00Z_MSC_CAPS_DewPoint_AGL-40m_RLatLon0.03_PT043H.grib2 2026-04-25 06:30 3.8M
20260425T00Z_MSC_CAPS_DewPoint_AGL-80m_RLatLon0.03_PT043H.grib2 2026-04-25 06:30 3.7M
20260425T00Z_MSC_CAPS_DownwardLongwaveRadiationFlux-Accum_Sfc_RLatLon0.03_PT043H.grib2 2026-04-25 06:30 2.1M
20260425T00Z_MSC_CAPS_DownwardShortwaveRadiationFlux-Accum_NTAtm_RLatLon0.03_PT043H.grib2 2026-04-25 06:30 505K
20260425T00Z_MSC_CAPS_DownwardShortwaveRadiationFlux-Accum_Sfc_RLatLon0.03_PT043H.grib2 2026-04-25 06:30 2.9M
20260425T00Z_MSC_CAPS_FreezingRain-Accum_Sfc_RLatLon0.03_PT043H.grib2 2026-04-25 06:30 1.0M
20260425T00Z_MSC_CAPS_GeopotentialHeight_IsbL-0050_RLatLon0.03_PT043H.grib2 2026-04-25 06:30 831K
20260425T00Z_MSC_CAPS_GeopotentialHeight_IsbL-0100_RLatLon0.03_PT043H.grib2 2026-04-25 06:30 816K
20260425T00Z_MSC_CAPS_GeopotentialHeight_IsbL-0150_RLatLon0.03_PT043H.grib2 2026-04-25 06:30 597K
20260425T00Z_MSC_CAPS_GeopotentialHeight_IsbL-0175_RLatLon0.03_PT043H.grib2 2026-04-25 06:30 604K
20260425T00Z_MSC_CAPS_GeopotentialHeight_IsbL-0200_RLatLon0.03_PT043H.grib2 2026-04-25 06:30 720K
20260425T00Z_MSC_CAPS_GeopotentialHeight_IsbL-0225_RLatLon0.03_PT043H.grib2 2026-04-25 06:30 739K
20260425T00Z_MSC_CAPS_GeopotentialHeight_IsbL-0250_RLatLon0.03_PT043H.grib2 2026-04-25 06:30 752K
20260425T00Z_MSC_CAPS_GeopotentialHeight_IsbL-0275_RLatLon0.03_PT043H.grib2 2026-04-25 06:30 763K
20260425T00Z_MSC_CAPS_GeopotentialHeight_IsbL-0300_RLatLon0.03_PT043H.grib2 2026-04-25 06:30 771K
20260425T00Z_MSC_CAPS_GeopotentialHeight_IsbL-0350_RLatLon0.03_PT043H.grib2 2026-04-25 06:30 775K
20260425T00Z_MSC_CAPS_GeopotentialHeight_IsbL-0400_RLatLon0.03_PT043H.grib2 2026-04-25 06:30 768K
20260425T00Z_MSC_CAPS_GeopotentialHeight_IsbL-0450_RLatLon0.03_PT043H.grib2 2026-04-25 06:30 762K
20260425T00Z_MSC_CAPS_GeopotentialHeight_IsbL-0500_RLatLon0.03_PT043H.grib2 2026-04-25 06:30 641K
20260425T00Z_MSC_CAPS_GeopotentialHeight_IsbL-0550_RLatLon0.03_PT043H.grib2 2026-04-25 06:30 636K
20260425T00Z_MSC_CAPS_GeopotentialHeight_IsbL-0600_RLatLon0.03_PT043H.grib2 2026-04-25 06:30 631K
20260425T00Z_MSC_CAPS_GeopotentialHeight_IsbL-0650_RLatLon0.03_PT043H.grib2 2026-04-25 06:30 630K
20260425T00Z_MSC_CAPS_GeopotentialHeight_IsbL-0700_RLatLon0.03_PT043H.grib2 2026-04-25 06:30 629K
20260425T00Z_MSC_CAPS_GeopotentialHeight_IsbL-0750_RLatLon0.03_PT043H.grib2 2026-04-25 06:30 629K
20260425T00Z_MSC_CAPS_GeopotentialHeight_IsbL-0800_RLatLon0.03_PT043H.grib2 2026-04-25 06:30 810K
20260425T00Z_MSC_CAPS_GeopotentialHeight_IsbL-0850_RLatLon0.03_PT043H.grib2 2026-04-25 06:30 818K
20260425T00Z_MSC_CAPS_GeopotentialHeight_IsbL-0875_RLatLon0.03_PT043H.grib2 2026-04-25 06:30 812K
20260425T00Z_MSC_CAPS_GeopotentialHeight_IsbL-0900_RLatLon0.03_PT043H.grib2 2026-04-25 06:30 836K
20260425T00Z_MSC_CAPS_GeopotentialHeight_IsbL-0925_RLatLon0.03_PT043H.grib2 2026-04-25 06:30 845K
20260425T00Z_MSC_CAPS_GeopotentialHeight_IsbL-0950_RLatLon0.03_PT043H.grib2 2026-04-25 06:30 667K
20260425T00Z_MSC_CAPS_GeopotentialHeight_IsbL-0970_RLatLon0.03_PT043H.grib2 2026-04-25 06:30 674K
20260425T00Z_MSC_CAPS_GeopotentialHeight_IsbL-0985_RLatLon0.03_PT043H.grib2 2026-04-25 06:30 680K
20260425T00Z_MSC_CAPS_GeopotentialHeight_IsbL-1000_RLatLon0.03_PT043H.grib2 2026-04-25 06:30 685K
20260425T00Z_MSC_CAPS_GeopotentialHeight_IsbL-1015_RLatLon0.03_PT043H.grib2 2026-04-25 06:30 691K
20260425T00Z_MSC_CAPS_GeopotentialHeight_Sfc_RLatLon0.03_PT043H.grib2 2026-04-25 06:30 1.0M
20260425T00Z_MSC_CAPS_IcePellets-Accum_Sfc_RLatLon0.03_PT043H.grib2 2026-04-25 06:30 91K
20260425T00Z_MSC_CAPS_LatentHeatNetFlux_Sfc_RLatLon0.03_PT043H.grib2 2026-04-25 06:30 1.9M
20260425T00Z_MSC_CAPS_LiftedIndex-MU-VT_IsbL-0500_RLatLon0.03_PT043H.grib2 2026-04-25 06:30 3.3M
20260425T00Z_MSC_CAPS_MixedLayerThickness_Sfc_RLatLon0.03_PT043H.nc 2026-04-25 06:16 17M
20260425T00Z_MSC_CAPS_NetLongwaveRadiationFlux-Accum_Sfc_RLatLon0.03_PT043H.grib2 2026-04-25 06:30 2.8M
20260425T00Z_MSC_CAPS_NetShortwaveRadiationFlux-Accum_Sfc_RLatLon0.03_PT043H.grib2 2026-04-25 06:30 2.8M
20260425T00Z_MSC_CAPS_PlanetaryBoundaryLayerHeight_Sfc_RLatLon0.03_PT043H.grib2 2026-04-25 06:30 2.9M
20260425T00Z_MSC_CAPS_Precip-Accum_Sfc_RLatLon0.03_PT043H.grib2 2026-04-25 06:30 5.9M
20260425T00Z_MSC_CAPS_PrecipRate_Sfc_RLatLon0.03_PT043H.grib2 2026-04-25 06:30 640K
20260425T00Z_MSC_CAPS_PrecipType-Instant_Sfc_RLatLon0.03_PT043H.grib2 2026-04-25 06:30 2.0M
20260425T00Z_MSC_CAPS_Pressure_MSL_RLatLon0.03_PT043H.grib2 2026-04-25 06:30 924K
20260425T00Z_MSC_CAPS_Pressure_Sfc_RLatLon0.03_PT043H.grib2 2026-04-25 06:30 1.2M
20260425T00Z_MSC_CAPS_RadiativeTemp_Sfc_RLatLon0.03_PT043H.grib2 2026-04-25 06:30 2.1M
20260425T00Z_MSC_CAPS_Rain-Accum_Sfc_RLatLon0.03_PT043H.grib2 2026-04-25 06:30 2.4M
20260425T00Z_MSC_CAPS_RelativeHumidity_AGL-120m_RLatLon0.03_PT043H.grib2 2026-04-25 06:30 2.9M
20260425T00Z_MSC_CAPS_RelativeHumidity_AGL-2m_RLatLon0.03_PT043H.grib2 2026-04-25 06:30 3.0M
20260425T00Z_MSC_CAPS_RelativeHumidity_AGL-40m_RLatLon0.03_PT043H.grib2 2026-04-25 06:30 3.0M
20260425T00Z_MSC_CAPS_RelativeHumidity_AGL-80m_RLatLon0.03_PT043H.grib2 2026-04-25 06:30 2.9M
20260425T00Z_MSC_CAPS_RelativeHumidity_IsbL-0050_RLatLon0.03_PT043H.grib2 2026-04-25 06:30 1.0M
20260425T00Z_MSC_CAPS_RelativeHumidity_IsbL-0100_RLatLon0.03_PT043H.grib2 2026-04-25 06:30 874K
20260425T00Z_MSC_CAPS_RelativeHumidity_IsbL-0150_RLatLon0.03_PT043H.grib2 2026-04-25 06:30 902K
20260425T00Z_MSC_CAPS_RelativeHumidity_IsbL-0175_RLatLon0.03_PT043H.grib2 2026-04-25 06:30 514K
20260425T00Z_MSC_CAPS_RelativeHumidity_IsbL-0200_RLatLon0.03_PT043H.grib2 2026-04-25 06:30 678K
20260425T00Z_MSC_CAPS_RelativeHumidity_IsbL-0225_RLatLon0.03_PT043H.grib2 2026-04-25 06:30 883K
20260425T00Z_MSC_CAPS_RelativeHumidity_IsbL-0250_RLatLon0.03_PT043H.grib2 2026-04-25 06:30 1.1M
20260425T00Z_MSC_CAPS_RelativeHumidity_IsbL-0275_RLatLon0.03_PT043H.grib2 2026-04-25 06:30 1.4M
20260425T00Z_MSC_CAPS_RelativeHumidity_IsbL-0300_RLatLon0.03_PT043H.grib2 2026-04-25 06:30 1.7M
20260425T00Z_MSC_CAPS_RelativeHumidity_IsbL-0350_RLatLon0.03_PT043H.grib2 2026-04-25 06:30 2.0M
20260425T00Z_MSC_CAPS_RelativeHumidity_IsbL-0400_RLatLon0.03_PT043H.grib2 2026-04-25 06:30 2.1M
20260425T00Z_MSC_CAPS_RelativeHumidity_IsbL-0450_RLatLon0.03_PT043H.grib2 2026-04-25 06:30 2.0M
20260425T00Z_MSC_CAPS_RelativeHumidity_IsbL-0500_RLatLon0.03_PT043H.grib2 2026-04-25 06:30 2.0M
20260425T00Z_MSC_CAPS_RelativeHumidity_IsbL-0550_RLatLon0.03_PT043H.grib2 2026-04-25 06:30 2.2M
20260425T00Z_MSC_CAPS_RelativeHumidity_IsbL-0600_RLatLon0.03_PT043H.grib2 2026-04-25 06:30 2.2M
20260425T00Z_MSC_CAPS_RelativeHumidity_IsbL-0650_RLatLon0.03_PT043H.grib2 2026-04-25 06:30 2.4M
20260425T00Z_MSC_CAPS_RelativeHumidity_IsbL-0700_RLatLon0.03_PT043H.grib2 2026-04-25 06:30 2.4M
20260425T00Z_MSC_CAPS_RelativeHumidity_IsbL-0750_RLatLon0.03_PT043H.grib2 2026-04-25 06:30 2.4M
20260425T00Z_MSC_CAPS_RelativeHumidity_IsbL-0800_RLatLon0.03_PT043H.grib2 2026-04-25 06:30 2.5M
20260425T00Z_MSC_CAPS_RelativeHumidity_IsbL-0850_RLatLon0.03_PT043H.grib2 2026-04-25 06:30 2.5M
20260425T00Z_MSC_CAPS_RelativeHumidity_IsbL-0875_RLatLon0.03_PT043H.grib2 2026-04-25 06:30 2.5M
20260425T00Z_MSC_CAPS_RelativeHumidity_IsbL-0900_RLatLon0.03_PT043H.grib2 2026-04-25 06:30 2.7M
20260425T00Z_MSC_CAPS_RelativeHumidity_IsbL-0925_RLatLon0.03_PT043H.grib2 2026-04-25 06:30 2.7M
20260425T00Z_MSC_CAPS_RelativeHumidity_IsbL-0950_RLatLon0.03_PT043H.grib2 2026-04-25 06:30 2.7M
20260425T00Z_MSC_CAPS_RelativeHumidity_IsbL-0970_RLatLon0.03_PT043H.grib2 2026-04-25 06:30 2.8M
20260425T00Z_MSC_CAPS_RelativeHumidity_IsbL-0985_RLatLon0.03_PT043H.grib2 2026-04-25 06:30 2.8M
20260425T00Z_MSC_CAPS_RelativeHumidity_IsbL-1000_RLatLon0.03_PT043H.grib2 2026-04-25 06:30 2.9M
20260425T00Z_MSC_CAPS_RelativeHumidity_IsbL-1015_RLatLon0.03_PT043H.grib2 2026-04-25 06:30 3.0M
20260425T00Z_MSC_CAPS_Runoff-Accum_Sfc_RLatLon0.03_PT043H.grib2 2026-04-25 06:30 284K
20260425T00Z_MSC_CAPS_SeaIceAreaFraction_Sfc_RLatLon0.03_PT043H.nc 2026-04-25 06:16 15M
20260425T00Z_MSC_CAPS_SeaIceCompressiveStrength_Sfc_RLatLon0.03_PT043H.nc 2026-04-25 06:16 15M
20260425T00Z_MSC_CAPS_SeaIceDivergence_Sfc_RLatLon0.03_PT043H.nc 2026-04-25 06:16 15M
20260425T00Z_MSC_CAPS_SeaIceInternalPressure_Sfc_RLatLon0.03_PT043H.nc 2026-04-25 06:16 15M
20260425T00Z_MSC_CAPS_SeaIceShear_Sfc_RLatLon0.03_PT043H.nc 2026-04-25 06:16 15M
20260425T00Z_MSC_CAPS_SeaIceSnowTemp_Sfc_RLatLon0.03_PT043H.nc 2026-04-25 06:16 15M
20260425T00Z_MSC_CAPS_SeaIceSnowVolume_Sfc_RLatLon0.03_PT043H.nc 2026-04-25 06:16 15M
20260425T00Z_MSC_CAPS_SeaIceVelocityX_Sfc_RLatLon0.03_PT043H.nc 2026-04-25 06:16 15M
20260425T00Z_MSC_CAPS_SeaIceVelocityY_Sfc_RLatLon0.03_PT043H.nc 2026-04-25 06:16 15M
20260425T00Z_MSC_CAPS_SeaIceVolume_Sfc_RLatLon0.03_PT043H.nc 2026-04-25 06:16 15M
20260425T00Z_MSC_CAPS_SeaSurfaceHeight_Sfc_RLatLon0.03_PT043H.nc 2026-04-25 06:16 16M
20260425T00Z_MSC_CAPS_SeaWaterSalinity_DBS-0.5m_RLatLon0.03_PT043H.nc 2026-04-25 06:16 16M
20260425T00Z_MSC_CAPS_SeaWaterSalinity_DBS-all_RLatLon0.03_PT043H.nc 2026-04-25 06:16 107M
20260425T00Z_MSC_CAPS_SeaWaterTemp_DBS-0.5m_RLatLon0.03_PT043H.nc 2026-04-25 06:16 14M
20260425T00Z_MSC_CAPS_SeaWaterTemp_DBS-all_RLatLon0.03_PT043H.nc 2026-04-25 06:16 87M
20260425T00Z_MSC_CAPS_SeaWaterVelocityX_DBS-0.5m_RLatLon0.03_PT043H.nc 2026-04-25 06:16 17M
20260425T00Z_MSC_CAPS_SeaWaterVelocityX_DBS-all_RLatLon0.03_PT043H.nc 2026-04-25 06:16 209M
20260425T00Z_MSC_CAPS_SeaWaterVelocityY_DBS-0.5m_RLatLon0.03_PT043H.nc 2026-04-25 06:16 17M
20260425T00Z_MSC_CAPS_SeaWaterVelocityY_DBS-all_RLatLon0.03_PT043H.nc 2026-04-25 06:16 214M
20260425T00Z_MSC_CAPS_SensibleHeatNetFlux_Sfc_RLatLon0.03_PT043H.grib2 2026-04-25 06:30 2.2M
20260425T00Z_MSC_CAPS_ShowalterIndex_IsbL-0500_RLatLon0.03_PT043H.grib2 2026-04-25 06:30 4.3M
20260425T00Z_MSC_CAPS_Snow-Accum_Sfc_RLatLon0.03_PT043H.grib2 2026-04-25 06:30 4.9M
20260425T00Z_MSC_CAPS_SnowDensity_Sfc_RLatLon0.03_PT043H.grib2 2026-04-25 06:30 1.4M
20260425T00Z_MSC_CAPS_SnowDepthWaterEquivalent_Sfc_RLatLon0.03_PT043H.grib2 2026-04-25 06:30 732K
20260425T00Z_MSC_CAPS_SnowDepth_Sfc_RLatLon0.03_PT043H.grib2 2026-04-25 06:30 1.3M
20260425T00Z_MSC_CAPS_SoilTemp_DBS-0to10cm_RLatLon0.03_PT043H.grib2 2026-04-25 06:30 1.7M
20260425T00Z_MSC_CAPS_SoilTemp_Sfc_RLatLon0.03_PT043H.grib2 2026-04-25 06:30 1.8M
20260425T00Z_MSC_CAPS_SoilVolumetricIceContent_Sfc_RLatLon0.03_PT043H.grib2 2026-04-25 06:30 1.5M
20260425T00Z_MSC_CAPS_SoilVolumetricWaterContent_DBS-0to10cm_RLatLon0.03_PT043H.grib2 2026-04-25 06:30 1.1M
20260425T00Z_MSC_CAPS_SoilVolumetricWaterContent_DBS-0to1cm_RLatLon0.03_PT043H.grib2 2026-04-25 06:30 1.7M
20260425T00Z_MSC_CAPS_SpecificHumidity_AGL-120m_RLatLon0.03_PT043H.grib2 2026-04-25 06:30 1.8M
20260425T00Z_MSC_CAPS_SpecificHumidity_AGL-2m_RLatLon0.03_PT043H.grib2 2026-04-25 06:30 2.0M
20260425T00Z_MSC_CAPS_SpecificHumidity_AGL-40m_RLatLon0.03_PT043H.grib2 2026-04-25 06:30 1.9M
20260425T00Z_MSC_CAPS_SpecificHumidity_AGL-80m_RLatLon0.03_PT043H.grib2 2026-04-25 06:30 1.8M
20260425T00Z_MSC_CAPS_SpecificHumidity_IsbL-0050_RLatLon0.03_PT043H.grib2 2026-04-25 06:30 962K
20260425T00Z_MSC_CAPS_SpecificHumidity_IsbL-0100_RLatLon0.03_PT043H.grib2 2026-04-25 06:30 1.0M
20260425T00Z_MSC_CAPS_SpecificHumidity_IsbL-0150_RLatLon0.03_PT043H.grib2 2026-04-25 06:30 1.3M
20260425T00Z_MSC_CAPS_SpecificHumidity_IsbL-0175_RLatLon0.03_PT043H.grib2 2026-04-25 06:30 1.0M
20260425T00Z_MSC_CAPS_SpecificHumidity_IsbL-0200_RLatLon0.03_PT043H.grib2 2026-04-25 06:30 898K
20260425T00Z_MSC_CAPS_SpecificHumidity_IsbL-0225_RLatLon0.03_PT043H.grib2 2026-04-25 06:30 1.1M
20260425T00Z_MSC_CAPS_SpecificHumidity_IsbL-0250_RLatLon0.03_PT043H.grib2 2026-04-25 06:30 1.1M
20260425T00Z_MSC_CAPS_SpecificHumidity_IsbL-0275_RLatLon0.03_PT043H.grib2 2026-04-25 06:30 1.1M
20260425T00Z_MSC_CAPS_SpecificHumidity_IsbL-0300_RLatLon0.03_PT043H.grib2 2026-04-25 06:30 1.0M
20260425T00Z_MSC_CAPS_SpecificHumidity_IsbL-0350_RLatLon0.03_PT043H.grib2 2026-04-25 06:30 952K
20260425T00Z_MSC_CAPS_SpecificHumidity_IsbL-0400_RLatLon0.03_PT043H.grib2 2026-04-25 06:30 1.3M
20260425T00Z_MSC_CAPS_SpecificHumidity_IsbL-0450_RLatLon0.03_PT043H.grib2 2026-04-25 06:30 1.1M
20260425T00Z_MSC_CAPS_SpecificHumidity_IsbL-0500_RLatLon0.03_PT043H.grib2 2026-04-25 06:30 1.3M
20260425T00Z_MSC_CAPS_SpecificHumidity_IsbL-0550_RLatLon0.03_PT043H.grib2 2026-04-25 06:30 1.3M
20260425T00Z_MSC_CAPS_SpecificHumidity_IsbL-0600_RLatLon0.03_PT043H.grib2 2026-04-25 06:30 1.4M
20260425T00Z_MSC_CAPS_SpecificHumidity_IsbL-0650_RLatLon0.03_PT043H.grib2 2026-04-25 06:30 1.6M
20260425T00Z_MSC_CAPS_SpecificHumidity_IsbL-0700_RLatLon0.03_PT043H.grib2 2026-04-25 06:30 1.6M
20260425T00Z_MSC_CAPS_SpecificHumidity_IsbL-0750_RLatLon0.03_PT043H.grib2 2026-04-25 06:30 1.4M
20260425T00Z_MSC_CAPS_SpecificHumidity_IsbL-0800_RLatLon0.03_PT043H.grib2 2026-04-25 06:30 1.5M
20260425T00Z_MSC_CAPS_SpecificHumidity_IsbL-0850_RLatLon0.03_PT043H.grib2 2026-04-25 06:30 1.6M
20260425T00Z_MSC_CAPS_SpecificHumidity_IsbL-0875_RLatLon0.03_PT043H.grib2 2026-04-25 06:30 1.7M
20260425T00Z_MSC_CAPS_SpecificHumidity_IsbL-0900_RLatLon0.03_PT043H.grib2 2026-04-25 06:30 1.8M
20260425T00Z_MSC_CAPS_SpecificHumidity_IsbL-0925_RLatLon0.03_PT043H.grib2 2026-04-25 06:30 1.9M
20260425T00Z_MSC_CAPS_SpecificHumidity_IsbL-0950_RLatLon0.03_PT043H.grib2 2026-04-25 06:30 1.9M
20260425T00Z_MSC_CAPS_SpecificHumidity_IsbL-0970_RLatLon0.03_PT043H.grib2 2026-04-25 06:30 1.9M
20260425T00Z_MSC_CAPS_SpecificHumidity_IsbL-0985_RLatLon0.03_PT043H.grib2 2026-04-25 06:30 2.0M
20260425T00Z_MSC_CAPS_SpecificHumidity_IsbL-1000_RLatLon0.03_PT043H.grib2 2026-04-25 06:30 2.0M
20260425T00Z_MSC_CAPS_SpecificHumidity_IsbL-1015_RLatLon0.03_PT043H.grib2 2026-04-25 06:30 2.1M
20260425T00Z_MSC_CAPS_SpecificHumidity_Sfc_RLatLon0.03_PT043H.grib2 2026-04-25 06:30 2.0M
20260425T00Z_MSC_CAPS_StormRelativeHelicity_Sfc_RLatLon0.03_PT043H.grib2 2026-04-25 06:30 2.7M
20260425T00Z_MSC_CAPS_Thickness_IsbL-1000to0500_RLatLon0.03_PT043H.grib2 2026-04-25 06:30 407K
20260425T00Z_MSC_CAPS_TotalCloudCover_Sfc_RLatLon0.03_PT043H.grib2 2026-04-25 06:30 3.7M
20260425T00Z_MSC_CAPS_TurboclineDepth_Sfc_RLatLon0.03_PT043H.nc 2026-04-25 06:16 16M
20260425T00Z_MSC_CAPS_UpwardLongwaveRadiationFlux_NTAtm_RLatLon0.03_PT043H.grib2 2026-04-25 06:30 3.0M
20260425T00Z_MSC_CAPS_UpwardShortwaveRadiationFlux_NTAtm_RLatLon0.03_PT043H.grib2 2026-04-25 06:30 2.5M
20260425T00Z_MSC_CAPS_VerticalVelocity_IsbL-0250_RLatLon0.03_PT043H.grib2 2026-04-25 06:30 857K
20260425T00Z_MSC_CAPS_VerticalVelocity_IsbL-0500_RLatLon0.03_PT043H.grib2 2026-04-25 06:30 1.0M
20260425T00Z_MSC_CAPS_VerticalVelocity_IsbL-0700_RLatLon0.03_PT043H.grib2 2026-04-25 06:30 1.2M
20260425T00Z_MSC_CAPS_VerticalVelocity_IsbL-0850_RLatLon0.03_PT043H.grib2 2026-04-25 06:30 1.4M
20260425T00Z_MSC_CAPS_VerticalVelocity_IsbL-1000_RLatLon0.03_PT043H.grib2 2026-04-25 06:30 1.4M
20260425T00Z_MSC_CAPS_WindDir_AGL-10m_RLatLon0.03_PT043H.grib2 2026-04-25 06:30 2.4M
20260425T00Z_MSC_CAPS_WindDir_AGL-120m_RLatLon0.03_PT043H.grib2 2026-04-25 06:30 1.3M
20260425T00Z_MSC_CAPS_WindDir_AGL-40m_RLatLon0.03_PT043H.grib2 2026-04-25 06:30 1.4M
20260425T00Z_MSC_CAPS_WindDir_AGL-80m_RLatLon0.03_PT043H.grib2 2026-04-25 06:30 1.3M
20260425T00Z_MSC_CAPS_WindDir_IsbL-0050_RLatLon0.03_PT043H.grib2 2026-04-25 06:30 1.0M
20260425T00Z_MSC_CAPS_WindDir_IsbL-0100_RLatLon0.03_PT043H.grib2 2026-04-25 06:30 1.0M
20260425T00Z_MSC_CAPS_WindDir_IsbL-0150_RLatLon0.03_PT043H.grib2 2026-04-25 06:30 1.1M
20260425T00Z_MSC_CAPS_WindDir_IsbL-0175_RLatLon0.03_PT043H.grib2 2026-04-25 06:30 1.0M
20260425T00Z_MSC_CAPS_WindDir_IsbL-0200_RLatLon0.03_PT043H.grib2 2026-04-25 06:30 1.1M
20260425T00Z_MSC_CAPS_WindDir_IsbL-0225_RLatLon0.03_PT043H.grib2 2026-04-25 06:30 1.2M
20260425T00Z_MSC_CAPS_WindDir_IsbL-0250_RLatLon0.03_PT043H.grib2 2026-04-25 06:30 1.1M
20260425T00Z_MSC_CAPS_WindDir_IsbL-0275_RLatLon0.03_PT043H.grib2 2026-04-25 06:30 1.1M
20260425T00Z_MSC_CAPS_WindDir_IsbL-0300_RLatLon0.03_PT043H.grib2 2026-04-25 06:30 1.1M
20260425T00Z_MSC_CAPS_WindDir_IsbL-0350_RLatLon0.03_PT043H.grib2 2026-04-25 06:30 1.1M
20260425T00Z_MSC_CAPS_WindDir_IsbL-0400_RLatLon0.03_PT043H.grib2 2026-04-25 06:30 1.2M
20260425T00Z_MSC_CAPS_WindDir_IsbL-0450_RLatLon0.03_PT043H.grib2 2026-04-25 06:30 1.2M
20260425T00Z_MSC_CAPS_WindDir_IsbL-0500_RLatLon0.03_PT043H.grib2 2026-04-25 06:30 1.3M
20260425T00Z_MSC_CAPS_WindDir_IsbL-0550_RLatLon0.03_PT043H.grib2 2026-04-25 06:30 1.3M
20260425T00Z_MSC_CAPS_WindDir_IsbL-0600_RLatLon0.03_PT043H.grib2 2026-04-25 06:30 1.3M
20260425T00Z_MSC_CAPS_WindDir_IsbL-0650_RLatLon0.03_PT043H.grib2 2026-04-25 06:30 1.4M
20260425T00Z_MSC_CAPS_WindDir_IsbL-0700_RLatLon0.03_PT043H.grib2 2026-04-25 06:30 1.4M
20260425T00Z_MSC_CAPS_WindDir_IsbL-0750_RLatLon0.03_PT043H.grib2 2026-04-25 06:30 1.6M
20260425T00Z_MSC_CAPS_WindDir_IsbL-0800_RLatLon0.03_PT043H.grib2 2026-04-25 06:30 1.7M
20260425T00Z_MSC_CAPS_WindDir_IsbL-0850_RLatLon0.03_PT043H.grib2 2026-04-25 06:30 1.9M
20260425T00Z_MSC_CAPS_WindDir_IsbL-0875_RLatLon0.03_PT043H.grib2 2026-04-25 06:30 1.9M
20260425T00Z_MSC_CAPS_WindDir_IsbL-0900_RLatLon0.03_PT043H.grib2 2026-04-25 06:30 2.0M
20260425T00Z_MSC_CAPS_WindDir_IsbL-0925_RLatLon0.03_PT043H.grib2 2026-04-25 06:30 2.1M
20260425T00Z_MSC_CAPS_WindDir_IsbL-0950_RLatLon0.03_PT043H.grib2 2026-04-25 06:30 2.1M
20260425T00Z_MSC_CAPS_WindDir_IsbL-0970_RLatLon0.03_PT043H.grib2 2026-04-25 06:30 2.2M
20260425T00Z_MSC_CAPS_WindDir_IsbL-0985_RLatLon0.03_PT043H.grib2 2026-04-25 06:30 2.2M
20260425T00Z_MSC_CAPS_WindDir_IsbL-1000_RLatLon0.03_PT043H.grib2 2026-04-25 06:30 2.3M
20260425T00Z_MSC_CAPS_WindDir_IsbL-1015_RLatLon0.03_PT043H.grib2 2026-04-25 06:30 2.4M
20260425T00Z_MSC_CAPS_WindGust-Max_AGL-10m_RLatLon0.03_PT043H.grib2 2026-04-25 06:30 2.3M
20260425T00Z_MSC_CAPS_WindGust-Min_AGL-10m_RLatLon0.03_PT043H.grib2 2026-04-25 06:30 2.4M
20260425T00Z_MSC_CAPS_WindGust_AGL-10m_RLatLon0.03_PT043H.grib2 2026-04-25 06:30 2.5M
20260425T00Z_MSC_CAPS_WindSpeed_AGL-10m_RLatLon0.03_PT043H.grib2 2026-04-25 06:30 2.1M
20260425T00Z_MSC_CAPS_WindSpeed_AGL-120m_RLatLon0.03_PT043H.grib2 2026-04-25 06:30 1.2M
20260425T00Z_MSC_CAPS_WindSpeed_AGL-40m_RLatLon0.03_PT043H.grib2 2026-04-25 06:30 1.2M
20260425T00Z_MSC_CAPS_WindSpeed_AGL-80m_RLatLon0.03_PT043H.grib2 2026-04-25 06:30 1.2M
20260425T00Z_MSC_CAPS_WindSpeed_IsbL-0050_RLatLon0.03_PT043H.grib2 2026-04-25 06:30 932K
20260425T00Z_MSC_CAPS_WindSpeed_IsbL-0100_RLatLon0.03_PT043H.grib2 2026-04-25 06:30 1.1M
20260425T00Z_MSC_CAPS_WindSpeed_IsbL-0150_RLatLon0.03_PT043H.grib2 2026-04-25 06:30 1.0M
20260425T00Z_MSC_CAPS_WindSpeed_IsbL-0175_RLatLon0.03_PT043H.grib2 2026-04-25 06:30 1.1M
20260425T00Z_MSC_CAPS_WindSpeed_IsbL-0200_RLatLon0.03_PT043H.grib2 2026-04-25 06:30 1.1M
20260425T00Z_MSC_CAPS_WindSpeed_IsbL-0225_RLatLon0.03_PT043H.grib2 2026-04-25 06:30 1.2M
20260425T00Z_MSC_CAPS_WindSpeed_IsbL-0250_RLatLon0.03_PT043H.grib2 2026-04-25 06:30 956K
20260425T00Z_MSC_CAPS_WindSpeed_IsbL-0275_RLatLon0.03_PT043H.grib2 2026-04-25 06:30 965K
20260425T00Z_MSC_CAPS_WindSpeed_IsbL-0300_RLatLon0.03_PT043H.grib2 2026-04-25 06:30 1.0M
20260425T00Z_MSC_CAPS_WindSpeed_IsbL-0350_RLatLon0.03_PT043H.grib2 2026-04-25 06:30 1.0M
20260425T00Z_MSC_CAPS_WindSpeed_IsbL-0400_RLatLon0.03_PT043H.grib2 2026-04-25 06:30 1.0M
20260425T00Z_MSC_CAPS_WindSpeed_IsbL-0450_RLatLon0.03_PT043H.grib2 2026-04-25 06:30 1.3M
20260425T00Z_MSC_CAPS_WindSpeed_IsbL-0500_RLatLon0.03_PT043H.grib2 2026-04-25 06:30 1.4M
20260425T00Z_MSC_CAPS_WindSpeed_IsbL-0550_RLatLon0.03_PT043H.grib2 2026-04-25 06:30 1.5M
20260425T00Z_MSC_CAPS_WindSpeed_IsbL-0600_RLatLon0.03_PT043H.grib2 2026-04-25 06:30 1.4M
20260425T00Z_MSC_CAPS_WindSpeed_IsbL-0650_RLatLon0.03_PT043H.grib2 2026-04-25 06:30 1.4M
20260425T00Z_MSC_CAPS_WindSpeed_IsbL-0700_RLatLon0.03_PT043H.grib2 2026-04-25 06:30 1.4M
20260425T00Z_MSC_CAPS_WindSpeed_IsbL-0750_RLatLon0.03_PT043H.grib2 2026-04-25 06:30 1.5M
20260425T00Z_MSC_CAPS_WindSpeed_IsbL-0800_RLatLon0.03_PT043H.grib2 2026-04-25 06:30 1.6M
20260425T00Z_MSC_CAPS_WindSpeed_IsbL-0850_RLatLon0.03_PT043H.grib2 2026-04-25 06:30 1.8M
20260425T00Z_MSC_CAPS_WindSpeed_IsbL-0875_RLatLon0.03_PT043H.grib2 2026-04-25 06:30 1.8M
20260425T00Z_MSC_CAPS_WindSpeed_IsbL-0900_RLatLon0.03_PT043H.grib2 2026-04-25 06:30 1.7M
20260425T00Z_MSC_CAPS_WindSpeed_IsbL-0925_RLatLon0.03_PT043H.grib2 2026-04-25 06:30 1.8M
20260425T00Z_MSC_CAPS_WindSpeed_IsbL-0950_RLatLon0.03_PT043H.grib2 2026-04-25 06:30 1.8M
20260425T00Z_MSC_CAPS_WindSpeed_IsbL-0970_RLatLon0.03_PT043H.grib2 2026-04-25 06:30 2.0M
20260425T00Z_MSC_CAPS_WindSpeed_IsbL-0985_RLatLon0.03_PT043H.grib2 2026-04-25 06:30 2.1M
20260425T00Z_MSC_CAPS_WindSpeed_IsbL-1000_RLatLon0.03_PT043H.grib2 2026-04-25 06:30 2.1M
20260425T00Z_MSC_CAPS_WindSpeed_IsbL-1015_RLatLon0.03_PT043H.grib2 2026-04-25 06:30 2.1M
20260425T00Z_MSC_CAPS_WindU_AGL-10m_RLatLon0.03_PT043H.grib2 2026-04-25 06:30 2.0M
20260425T00Z_MSC_CAPS_WindU_AGL-120m_RLatLon0.03_PT043H.grib2 2026-04-25 06:30 1.2M
20260425T00Z_MSC_CAPS_WindU_AGL-40m_RLatLon0.03_PT043H.grib2 2026-04-25 06:30 1.2M
20260425T00Z_MSC_CAPS_WindU_AGL-80m_RLatLon0.03_PT043H.grib2 2026-04-25 06:30 1.2M
20260425T00Z_MSC_CAPS_WindU_IsbL-0050_RLatLon0.03_PT043H.grib2 2026-04-25 06:30 765K
20260425T00Z_MSC_CAPS_WindU_IsbL-0100_RLatLon0.03_PT043H.grib2 2026-04-25 06:30 781K
20260425T00Z_MSC_CAPS_WindU_IsbL-0150_RLatLon0.03_PT043H.grib2 2026-04-25 06:30 905K
20260425T00Z_MSC_CAPS_WindU_IsbL-0175_RLatLon0.03_PT043H.grib2 2026-04-25 06:30 713K
20260425T00Z_MSC_CAPS_WindU_IsbL-0200_RLatLon0.03_PT043H.grib2 2026-04-25 06:30 729K
20260425T00Z_MSC_CAPS_WindU_IsbL-0225_RLatLon0.03_PT043H.grib2 2026-04-25 06:30 874K
20260425T00Z_MSC_CAPS_WindU_IsbL-0250_RLatLon0.03_PT043H.grib2 2026-04-25 06:30 896K
20260425T00Z_MSC_CAPS_WindU_IsbL-0275_RLatLon0.03_PT043H.grib2 2026-04-25 06:30 699K
20260425T00Z_MSC_CAPS_WindU_IsbL-0300_RLatLon0.03_PT043H.grib2 2026-04-25 06:30 711K
20260425T00Z_MSC_CAPS_WindU_IsbL-0350_RLatLon0.03_PT043H.grib2 2026-04-25 06:30 720K
20260425T00Z_MSC_CAPS_WindU_IsbL-0400_RLatLon0.03_PT043H.grib2 2026-04-25 06:30 936K
20260425T00Z_MSC_CAPS_WindU_IsbL-0450_RLatLon0.03_PT043H.grib2 2026-04-25 06:30 956K
20260425T00Z_MSC_CAPS_WindU_IsbL-0500_RLatLon0.03_PT043H.grib2 2026-04-25 06:30 1.0M
20260425T00Z_MSC_CAPS_WindU_IsbL-0550_RLatLon0.03_PT043H.grib2 2026-04-25 06:30 1.0M
20260425T00Z_MSC_CAPS_WindU_IsbL-0600_RLatLon0.03_PT043H.grib2 2026-04-25 06:30 938K
20260425T00Z_MSC_CAPS_WindU_IsbL-0650_RLatLon0.03_PT043H.grib2 2026-04-25 06:30 971K
20260425T00Z_MSC_CAPS_WindU_IsbL-0700_RLatLon0.03_PT043H.grib2 2026-04-25 06:30 1.0M
20260425T00Z_MSC_CAPS_WindU_IsbL-0750_RLatLon0.03_PT043H.grib2 2026-04-25 06:30 1.3M
20260425T00Z_MSC_CAPS_WindU_IsbL-0800_RLatLon0.03_PT043H.grib2 2026-04-25 06:30 1.1M
20260425T00Z_MSC_CAPS_WindU_IsbL-0850_RLatLon0.03_PT043H.grib2 2026-04-25 06:30 1.2M
20260425T00Z_MSC_CAPS_WindU_IsbL-0875_RLatLon0.03_PT043H.grib2 2026-04-25 06:30 1.2M
20260425T00Z_MSC_CAPS_WindU_IsbL-0900_RLatLon0.03_PT043H.grib2 2026-04-25 06:30 1.3M
20260425T00Z_MSC_CAPS_WindU_IsbL-0925_RLatLon0.03_PT043H.grib2 2026-04-25 06:30 1.3M
20260425T00Z_MSC_CAPS_WindU_IsbL-0950_RLatLon0.03_PT043H.grib2 2026-04-25 06:30 1.7M
20260425T00Z_MSC_CAPS_WindU_IsbL-0970_RLatLon0.03_PT043H.grib2 2026-04-25 06:30 1.7M
20260425T00Z_MSC_CAPS_WindU_IsbL-0985_RLatLon0.03_PT043H.grib2 2026-04-25 06:30 1.8M
20260425T00Z_MSC_CAPS_WindU_IsbL-1000_RLatLon0.03_PT043H.grib2 2026-04-25 06:30 1.8M
20260425T00Z_MSC_CAPS_WindU_IsbL-1015_RLatLon0.03_PT043H.grib2 2026-04-25 06:30 2.0M
20260425T00Z_MSC_CAPS_WindV_AGL-10m_RLatLon0.03_PT043H.grib2 2026-04-25 06:30 1.9M
20260425T00Z_MSC_CAPS_WindV_AGL-120m_RLatLon0.03_PT043H.grib2 2026-04-25 06:30 908K
20260425T00Z_MSC_CAPS_WindV_AGL-40m_RLatLon0.03_PT043H.grib2 2026-04-25 06:30 943K
20260425T00Z_MSC_CAPS_WindV_AGL-80m_RLatLon0.03_PT043H.grib2 2026-04-25 06:30 915K
20260425T00Z_MSC_CAPS_WindV_IsbL-0050_RLatLon0.03_PT043H.grib2 2026-04-25 06:30 940K
20260425T00Z_MSC_CAPS_WindV_IsbL-0100_RLatLon0.03_PT043H.grib2 2026-04-25 06:30 780K
20260425T00Z_MSC_CAPS_WindV_IsbL-0150_RLatLon0.03_PT043H.grib2 2026-04-25 06:30 903K
20260425T00Z_MSC_CAPS_WindV_IsbL-0175_RLatLon0.03_PT043H.grib2 2026-04-25 06:30 710K
20260425T00Z_MSC_CAPS_WindV_IsbL-0200_RLatLon0.03_PT043H.grib2 2026-04-25 06:30 854K
20260425T00Z_MSC_CAPS_WindV_IsbL-0225_RLatLon0.03_PT043H.grib2 2026-04-25 06:30 875K
20260425T00Z_MSC_CAPS_WindV_IsbL-0250_RLatLon0.03_PT043H.grib2 2026-04-25 06:30 893K
20260425T00Z_MSC_CAPS_WindV_IsbL-0275_RLatLon0.03_PT043H.grib2 2026-04-25 06:30 697K
20260425T00Z_MSC_CAPS_WindV_IsbL-0300_RLatLon0.03_PT043H.grib2 2026-04-25 06:30 706K
20260425T00Z_MSC_CAPS_WindV_IsbL-0350_RLatLon0.03_PT043H.grib2 2026-04-25 06:30 927K
20260425T00Z_MSC_CAPS_WindV_IsbL-0400_RLatLon0.03_PT043H.grib2 2026-04-25 06:30 936K
20260425T00Z_MSC_CAPS_WindV_IsbL-0450_RLatLon0.03_PT043H.grib2 2026-04-25 06:30 957K
20260425T00Z_MSC_CAPS_WindV_IsbL-0500_RLatLon0.03_PT043H.grib2 2026-04-25 06:30 1.0M
20260425T00Z_MSC_CAPS_WindV_IsbL-0550_RLatLon0.03_PT043H.grib2 2026-04-25 06:30 913K
20260425T00Z_MSC_CAPS_WindV_IsbL-0600_RLatLon0.03_PT043H.grib2 2026-04-25 06:30 937K
20260425T00Z_MSC_CAPS_WindV_IsbL-0650_RLatLon0.03_PT043H.grib2 2026-04-25 06:30 1.2M
20260425T00Z_MSC_CAPS_WindV_IsbL-0700_RLatLon0.03_PT043H.grib2 2026-04-25 06:30 1.3M
20260425T00Z_MSC_CAPS_WindV_IsbL-0750_RLatLon0.03_PT043H.grib2 2026-04-25 06:30 1.0M
20260425T00Z_MSC_CAPS_WindV_IsbL-0800_RLatLon0.03_PT043H.grib2 2026-04-25 06:30 1.1M
20260425T00Z_MSC_CAPS_WindV_IsbL-0850_RLatLon0.03_PT043H.grib2 2026-04-25 06:30 1.3M
20260425T00Z_MSC_CAPS_WindV_IsbL-0875_RLatLon0.03_PT043H.grib2 2026-04-25 06:30 1.3M
20260425T00Z_MSC_CAPS_WindV_IsbL-0900_RLatLon0.03_PT043H.grib2 2026-04-25 06:30 1.3M
20260425T00Z_MSC_CAPS_WindV_IsbL-0925_RLatLon0.03_PT043H.grib2 2026-04-25 06:30 1.4M
20260425T00Z_MSC_CAPS_WindV_IsbL-0950_RLatLon0.03_PT043H.grib2 2026-04-25 06:30 1.4M
20260425T00Z_MSC_CAPS_WindV_IsbL-0970_RLatLon0.03_PT043H.grib2 2026-04-25 06:30 1.4M
20260425T00Z_MSC_CAPS_WindV_IsbL-0985_RLatLon0.03_PT043H.grib2 2026-04-25 06:30 1.4M
20260425T00Z_MSC_CAPS_WindV_IsbL-1000_RLatLon0.03_PT043H.grib2 2026-04-25 06:30 1.5M
20260425T00Z_MSC_CAPS_WindV_IsbL-1015_RLatLon0.03_PT043H.grib2 2026-04-25 06:30 1.9M